Coatesville, PA

6:57 AM EDT on June 26, 2017 (GMT -0400)
Chester County Carlson

Weather History for KMQS - March, 2012

Change the Weather History Date:

Friday, March 2, 2012

  Actual Average (KILG) Record (KILG)
Temperature  
Mean Temperature 38 °F -  
Max Temperature 44 °F 50 °F 77 °F (1972)
Min Temperature 32 °F 31 °F 10 °F (1980)
Degree Days  
Heating Degree Days 27    
Moisture  
Dew Point 36 °F    
Average Humidity 86    
Maximum Humidity 100    
Minimum Humidity 75    
Precipitation  
Precipitation 0.00 in - - ()
Sea Level Pressure  
Sea Level Pressure 29.98 in    
Wind  
Wind Speed 7 mph (SE)    
Max Wind Speed 13 mph    
Max Gust Speed 23 mph    
Visibility 9 miles    
Events      
Averages and records for this station are not official NWS values.
T = Trace of Precipitation, MM = Missing Value Source: NWS Daily Summary

Daily Weather History Graph

Daily Weather History Graph

Search for Another Location

Airport or City:

Trip Planner

Search our weather history database for the weather conditions in past years. The results will help you decide how hot, cold, wet, or windy it might be!

Date:

Astronomy

Mar. 02, 2012 Rise Set
Actual Time 6:34 AM EST 5:56 PM EST
Civil Twilight 6:07 AM EST 6:24 PM EST
Nautical Twilight 5:36 AM EST 6:55 PM EST
Astronomical Twilight 5:04 AM EST 7:26 PM EST
Moon 12:07 PM EST (3/2) 2:22 AM EST (3/2)
Length of Visible Light 12h 16m
Length of Day
11h 22m
Waxing Gibbous, 66% of the Moon is Illuminated
Mar 2
Waxing Gibbous
Mar 8
Full
Mar 14
Last Quarter
Mar 22
New
Mar 30
First Quarter

Hourly Weather History & Observations

Time (EST) Temp. Windchill Dew Point Humidity Pressure Visibility Wind Dir Wind Speed Gust Speed Precip Events Conditions
12:15 AM 39.2 °F 33.0 °F 32.0 °F 75% 29.97 in 10.0 mi NNW 9.2 mph - N/A   Clear
12:55 AM 39.2 °F 33.0 °F 32.0 °F 75% 29.98 in 10.0 mi NNW 9.2 mph - N/A   Clear
1:15 AM 37.4 °F 30.3 °F 32.0 °F 81% 29.98 in 10.0 mi NW 10.4 mph - N/A   Clear
1:35 AM 37.4 °F 30.3 °F 32.0 °F 81% 29.98 in 10.0 mi NNW 10.4 mph - N/A   Clear
1:55 AM 37.4 °F 31.4 °F 32.0 °F 81% 29.98 in 10.0 mi NNW 8.1 mph - N/A   Clear
2:15 AM 37.4 °F 32.1 °F 32.0 °F 81% 29.98 in 10.0 mi NNW 6.9 mph - N/A   Clear
2:35 AM 37.4 °F 32.8 °F 32.0 °F 81% 29.99 in 10.0 mi NW 5.8 mph - N/A   Clear
2:55 AM 35.6 °F 31.7 °F 32.0 °F 87% 29.99 in 10.0 mi WNW 4.6 mph - N/A   Clear
3:15 AM 35.6 °F 32.8 °F 32.0 °F 87% 29.99 in 10.0 mi West 3.5 mph - N/A   Clear
3:35 AM 37.4 °F - 32.0 °F 81% 30.00 in 10.0 mi Calm Calm - N/A   Clear
3:55 AM 37.4 °F - 32.0 °F 81% 30.00 in 10.0 mi Calm Calm - N/A   Clear
4:15 AM 35.6 °F - 32.0 °F 87% 30.01 in 10.0 mi Calm Calm - N/A   Clear
4:35 AM 35.6 °F - 32.0 °F 87% 30.02 in 10.0 mi Calm Calm - N/A   Clear
4:55 AM 33.8 °F 30.8 °F 32.0 °F 93% 30.02 in 10.0 mi East 3.5 mph - N/A   Clear
5:15 AM 32.0 °F - 30.2 °F 93% 30.03 in 10.0 mi Calm Calm - N/A   Clear
5:35 AM 32.0 °F - 32.0 °F 100% 30.03 in 10.0 mi Calm Calm - N/A   Clear
5:55 AM 33.8 °F - 32.0 °F 93% 30.04 in 10.0 mi Calm Calm - N/A   Clear
6:15 AM 33.8 °F - 32.0 °F 93% 30.05 in 10.0 mi Calm Calm - N/A   Clear
6:35 AM 32.0 °F - 32.0 °F 100% 30.04 in 10.0 mi Calm Calm - N/A   Clear
6:55 AM 33.8 °F 30.8 °F 32.0 °F 93% 30.05 in 10.0 mi ESE 3.5 mph - N/A   Clear
7:15 AM 32.0 °F 28.7 °F 32.0 °F 100% 30.06 in 10.0 mi ESE 3.5 mph - N/A   Clear
7:35 AM 33.8 °F 30.8 °F 32.0 °F 93% 30.06 in 9.0 mi ESE 3.5 mph - N/A   Clear
7:55 AM 35.6 °F 29.9 °F 32.0 °F 87% 30.07 in 9.0 mi East 6.9 mph - N/A   Clear
8:15 AM 35.6 °F 29.9 °F 33.8 °F 93% 30.08 in 7.0 mi ESE 6.9 mph - N/A   Clear
8:35 AM 37.4 °F 32.8 °F 35.6 °F 93% 30.07 in 5.0 mi ESE 5.8 mph - N/A   Clear
8:55 AM 37.4 °F 32.8 °F 35.6 °F 93% 30.07 in 8.0 mi SE 5.8 mph - N/A   Partly Cloudy
9:15 AM 39.2 °F 35.9 °F 37.4 °F 93% 30.07 in 8.0 mi SE 4.6 mph - N/A   Scattered Clouds
9:35 AM 39.2 °F 35.9 °F 37.4 °F 93% 30.08 in 9.0 mi SE 4.6 mph - N/A   Mostly Cloudy
9:55 AM 41.0 °F 37.1 °F 37.4 °F 87% 30.08 in 10.0 mi SE 5.8 mph - N/A   Overcast
10:15 AM 42.8 °F 38.6 °F 37.4 °F 81% 30.07 in 10.0 mi SSE 6.9 mph 16.1 mph N/A   Overcast
10:35 AM 42.8 °F 38.6 °F 37.4 °F 81% 30.08 in 10.0 mi SE 6.9 mph - N/A   Overcast
10:55 AM 42.8 °F 39.3 °F 37.4 °F 81% 30.07 in 10.0 mi SE 5.8 mph - N/A   Overcast
11:15 AM 42.8 °F 38.0 °F 35.6 °F 76% 30.06 in 10.0 mi SE 8.1 mph 16.1 mph N/A   Mostly Cloudy
11:35 AM 44.6 °F 40.2 °F 37.4 °F 76% 30.05 in 10.0 mi SE 8.1 mph - N/A   Overcast
11:55 AM 44.6 °F 38.4 °F 37.4 °F 76% 30.03 in 10.0 mi SE 12.7 mph - N/A   Overcast
12:15 PM 44.6 °F 40.2 °F 37.4 °F 76% 30.03 in 10.0 mi SSE 8.1 mph - N/A   Overcast
12:35 PM 42.8 °F 37.5 °F 37.4 °F 81% 30.02 in 10.0 mi SE 9.2 mph 18.4 mph N/A   Overcast
12:55 PM 44.6 °F 39.7 °F 37.4 °F 76% 30.00 in 10.0 mi SE 9.2 mph - N/A   Overcast
1:15 PM 44.6 °F 38.8 °F 37.4 °F 76% 30.00 in 10.0 mi SSE 11.5 mph 19.6 mph N/A   Overcast
1:35 PM 44.6 °F 39.2 °F 37.4 °F 76% 29.98 in 10.0 mi SE 10.4 mph 16.1 mph N/A   Overcast
1:55 PM 44.6 °F 40.2 °F 37.4 °F 76% 29.95 in 10.0 mi SSE 8.1 mph - N/A   Overcast
2:35 PM 44.6 °F 39.7 °F 37.4 °F 76% 29.99 in 10.0 mi SSE 9.2 mph - N/A   Overcast
2:55 PM 44.6 °F 38.8 °F 37.4 °F 76% 29.99 in 10.0 mi SSE 11.5 mph 16.1 mph N/A   Mostly Cloudy
3:35 PM 44.6 °F 40.2 °F 37.4 °F 76% 29.97 in 10.0 mi SE 8.1 mph 17.3 mph N/A   Overcast
3:55 PM 44.6 °F 38.8 °F 37.4 °F 76% 29.96 in 10.0 mi SE 11.5 mph 18.4 mph N/A   Overcast
4:15 PM 44.6 °F 40.2 °F 37.4 °F 76% 29.95 in 10.0 mi SE 8.1 mph 19.6 mph N/A   Overcast
4:35 PM 44.6 °F 39.2 °F 37.4 °F 76% 29.94 in 10.0 mi SSE 10.4 mph 17.3 mph N/A   Overcast
4:55 PM 44.6 °F 39.7 °F 37.4 °F 76% 29.93 in 10.0 mi SSE 9.2 mph 17.3 mph N/A   Overcast
5:15 PM 44.6 °F 40.7 °F 37.4 °F 76% 29.94 in 10.0 mi SE 6.9 mph 16.1 mph N/A   Overcast
5:35 PM 44.6 °F 40.2 °F 37.4 °F 76% 29.93 in 10.0 mi ESE 8.1 mph 16.1 mph N/A   Overcast
5:55 PM 42.8 °F 37.0 °F 37.4 °F 81% 29.91 in 10.0 mi SE 10.4 mph 16.1 mph N/A   Overcast
6:15 PM 42.8 °F 37.5 °F 37.4 °F 81% 29.91 in 10.0 mi SE 9.2 mph 17.3 mph N/A   Overcast
6:35 PM 42.8 °F 36.2 °F 39.2 °F 87% 29.88 in 9.0 mi SE 12.7 mph 23.0 mph N/A   Overcast
6:55 PM 42.8 °F 37.5 °F 39.2 °F 87% 29.88 in 7.0 mi SE 9.2 mph 17.3 mph N/A   Overcast
7:15 PM 42.8 °F 38.0 °F 41.0 °F 93% 29.87 in 7.0 mi SE 8.1 mph 16.1 mph N/A   Overcast
7:35 PM 41.0 °F 34.7 °F 41.0 °F 100% 29.85 in 10.0 mi ESE 10.4 mph 20.7 mph N/A   Overcast
7:55 PM 41.0 °F 33.9 °F 41.0 °F 100% 29.83 in 8.0 mi ESE 12.7 mph 19.6 mph N/A   Overcast
8:15 PM 41.0 °F 33.9 °F 41.0 °F 100% 29.83 in 7.0 mi ESE 12.7 mph 19.6 mph N/A   Overcast
8:35 PM 41.0 °F 34.7 °F 41.0 °F 100% 29.80 in 9.0 mi ESE 10.4 mph 18.4 mph N/A   Overcast
8:55 PM 41.0 °F 34.7 °F 41.0 °F 100% 29.80 in 10.0 mi ESE 10.4 mph 17.3 mph N/A   Overcast
9:15 PM 42.8 °F 36.6 °F 42.8 °F 100% 29.80 in 7.0 mi SE 11.5 mph - N/A   Overcast
9:35 PM 42.8 °F 40.1 °F 42.8 °F 100% 29.80 in 2.5 mi SE 4.6 mph 16.1 mph N/A   Overcast
9:55 PM 42.8 °F 37.5 °F 42.8 °F 100% 29.79 in 5.0 mi SE 9.2 mph - N/A   Overcast
10:15 PM 42.8 °F 37.5 °F 42.8 °F 100% 29.79 in 3.0 mi ESE 9.2 mph - N/A   Overcast
10:35 PM 42.8 °F 41.1 °F 42.8 °F 100% 29.80 in 2.5 mi East 3.5 mph - N/A Rain Light Rain
10:55 PM 42.8 °F - 42.8 °F 100% 29.81 in 2.0 mi Calm Calm - 0.02 in Rain Light Rain
11:15 PM 42.8 °F 39.3 °F 42.8 °F 100% 29.77 in 1.2 mi SE 5.8 mph - 0.02 in Rain Light Rain
11:35 PM 42.8 °F 39.3 °F 42.8 °F 100% 29.76 in 0.2 mi SE 5.8 mph - 0.02 in Fog Fog
11:55 PM 42.8 °F 39.3 °F 42.8 °F 100% 29.73 in 0.5 mi SE 5.8 mph - 0.02 in Fog Fog